Location: Koslow
(50.3020°N, 18.5663°E)
Time: 20:52:47
(UTC+00:00)

X-37B - Pass Details

Date: 04 August 2021
Orbit: 381 x 393 km, 45.0° (Epoch: 29 August)

Event Time Altitude Azimuth Distance (km) Brightness Sun altitude
Exits shadow 02:16:23 12° 209° (SSW) 1,296 2.6 -8.9°
Maximum altitude 02:18:29 21° 162° (SSE) 935 2.3 -8.7°
Drops below altitude 10° 02:20:55 10° 111° (ESE) 1,398 3.8 -8.4°
Sets 02:23:17 0° 95° (E) 2,254 5.2 -8.1°
